Campo, CA

2:28 PM PDT on October 20, 2019 (GMT -0700)
Campo

Weather History for KCZZ - September, 2019

Change the Weather History Date:

Monday, September 16, 2019

  Actual Average Record
Temperature  
Mean Temperature 71 °F 69 °F  
Max Temperature 89 °F 90 °F 101 °F (1951)
Min Temperature 53 °F 49 °F 33 °F (1985)
Degree Days  
Heating Degree Days 0 1  
Month to date heating degree days 6 14  
Since 1 July heating degree days 12 28  
Cooling Degree Days 6 5  
Month to date cooling degree days 142 108  
Year to date cooling degree days 788 758  
Growing Degree Days 22 (Base 50)    
Moisture  
Dew Point 38 °F    
Average Humidity 32    
Maximum Humidity 57    
Minimum Humidity 7    
Precipitation  
Precipitation 0.00 in 0.01 in 0.22 in (1948)
Month to date precipitation 0.21 0.19  
Year to date precipitation 13.03 11.36  
Sea Level Pressure  
Sea Level Pressure 29.86 in    
Wind  
Wind Speed 8 mph (ENE)    
Max Wind Speed 21 mph    
Max Gust Speed 26 mph    
T = Trace of Precipitation, MM = Missing Value Source: NWS Daily Summary

Daily Weather History Graph

Daily Weather History Graph

Search for Another Location

Airport or City:

Astronomy

Sep. 16, 2019 Rise Set
Actual Time 6:30 AM PDT 6:50 PM PDT
Civil Twilight 6:05 AM PDT 7:15 PM PDT
Nautical Twilight 5:36 AM PDT 7:44 PM PDT
Astronomical Twilight 5:07 AM PDT 8:13 PM PDT
Moon 8:34 PM PDT (9/16) 8:36 AM PDT (9/16)
Length of Visible Light 13h 09m
Length of Day
12h 20m
Waning Gibbous, 94% of the Moon is Illuminated
Sep 16
Waning Gibbous
Sep 21
Last Quarter
Sep 28
New
Oct 5
First Quarter
Oct 13
Full

Hourly Weather History & Observations

Time (PDT) Temp. Dew Point Humidity Pressure Visibility Wind Dir Wind Speed Gust Speed Precip Events Conditions
12:52 AM 62.1 °F 43.0 °F 50% 29.86 in - NE 4.6 mph - N/A   Unknown
1:52 AM 61.0 °F 43.0 °F 52% 29.86 in - NE 6.9 mph - N/A   Unknown
2:52 AM 61.0 °F 43.0 °F 52% 29.85 in - NE 5.8 mph - N/A   Unknown
3:52 AM 59.0 °F 43.0 °F 55% 29.86 in - NE 6.9 mph - N/A   Unknown
4:52 AM 59.0 °F 43.0 °F 55% 29.86 in - NE 4.6 mph - N/A   Unknown
5:52 AM 57.0 °F 42.1 °F 57% 29.87 in - ENE 4.6 mph - N/A   Unknown
6:52 AM 55.0 °F 39.9 °F 57% 29.90 in - ENE 3.5 mph - N/A   Unknown
7:52 AM 63.0 °F 43.0 °F 48% 29.90 in - ENE 3.5 mph - N/A   Unknown
8:52 AM 75.9 °F 44.1 °F 32% 29.89 in - Calm Calm - N/A   Unknown
9:52 AM 82.9 °F 36.0 °F 19% 29.88 in - WSW 6.9 mph - N/A   Unknown
10:52 AM 86.0 °F 32.0 °F 14% 29.88 in - SW 12.7 mph 18.4 mph N/A   Unknown
12:52 PM 89.1 °F 17.1 °F 7% 29.86 in - SW 11.5 mph 19.6 mph N/A   Unknown
1:52 PM 88.0 °F 27.0 °F 11% 29.84 in - WSW 16.1 mph 24.2 mph N/A   Unknown
2:52 PM 88.0 °F 28.9 °F 12% 29.82 in - SW 17.3 mph 25.3 mph N/A   Unknown
4:52 PM 82.9 °F 35.1 °F 18% 29.83 in - SW 12.7 mph - N/A   Unknown
5:52 PM 80.1 °F 30.9 °F 17% 29.83 in - SW 11.5 mph - N/A   Unknown
6:52 PM 75.0 °F 37.9 °F 26% 29.85 in - SW 11.5 mph - N/A   Unknown
7:52 PM 69.1 °F 41.0 °F 36% 29.86 in - SW 5.8 mph - N/A   Unknown
8:52 PM 64.0 °F 39.9 °F 41% 29.86 in - Calm Calm - N/A   Unknown
9:52 PM 62.1 °F 39.0 °F 43% 29.87 in - NNE 4.6 mph - N/A   Unknown
11:52 PM 59.0 °F 39.0 °F 48% 29.87 in - NE 3.5 mph - N/A   Unknown